K0HYD Weather Reports


Display with metric or nautical units.
time (UTC)temp
F
wind
direction
speed
MPH
gust
MPH
rain 1hr
in
rain 24hr
in
rain mn
in
humidity
%
barometer
mb
20260506192813 58 18 0.0 2.0 0.00 0.00 0.18 48 1020.2
20260506191312 59 58 0.0 1.0 0.00 0.00 0.18 50 1020.2
20260506185811 57 92 0.0 6.0 0.00 0.00 0.18 53 1020.2
20260506184310 57 136 0.0 2.0 0.00 0.00 0.18 56 1020.1
20260506182809 57 29 0.0 6.0 0.00 0.00 0.18 54 1020.2
20260506181308 57 65 6.0 6.0 0.00 0.00 0.18 58 1020.4
20260506175807 56 96 2.0 5.0 0.00 0.00 0.18 58 1020.8
20260506174306 54 87 0.0 6.0 0.00 0.00 0.18 63 1020.9
20260506171304 53 32 0.0 3.0 0.00 0.00 0.18 68 1021.1
20260506165803 52 26 0.0 1.0 0.00 0.00 0.18 71 1021.1
20260506162801 51 48 0.0 1.0 0.00 0.00 0.18 80 1021.0
20260506161300 50 39 0.0 2.0 0.00 0.00 0.18 80 1020.4
20260506155759 48 60 1.0 2.0 0.00 0.00 0.18 84 1020.8
20260506154258 48 41 0.0 1.0 0.00 0.00 0.18 84 1021.0
20260506152758 47 44 0.0 1.0 0.00 0.00 0.18 84 1021.1
20260506151256 47 46 0.0 1.0 0.00 0.00 0.18 88 1020.6
20260506145755 46 39 0.0 1.0 0.00 0.00 0.18 89 1020.7
20260506144255 46 40 0.0 1.0 0.00 0.00 0.18 91 1020.9
20260506142754 46 43 0.0 1.0 0.00 0.00 0.18 93 1020.4
20260506135752 46 44 0.0 0.0 0.00 0.00 0.18 95 1020.5
20260506134251 45 34 0.0 4.0 0.00 0.00 0.18 96 1020.3
20260506132750 45 39 0.0 0.0 0.00 0.00 0.17 96 1020.0
20260506131249 45 41 0.0 0.0 0.00 0.00 0.17 97 1020.1
20260506125748 44 40 0.0 0.0 0.00 0.00 0.17 96 1019.8
20260506124247 44 41 0.0 1.0 0.00 0.00 0.17 96 1019.4
20260506122746 44 40 0.0 0.0 0.00 0.00 0.17 97 1019.2
20260506121245 44 18 0.0 0.0 0.00 0.00 0.17 97 1019.2
20260506114243 43 32 0.0 0.0 0.00 0.00 0.17 96 1018.7
20260506112742 43 23 0.0 0.0 0.00 0.00 0.17 96 1018.1
20260506111241 43 308 0.0 0.0 0.00 0.00 0.17 96 1017.9
20260506105740 43 13 0.0 0.0 0.00 0.00 0.17 96 1017.7
20260506104239 43 46 0.0 0.0 0.00 0.00 0.17 96 1017.4
20260506102738 42 19 0.0 0.0 0.00 0.00 0.17 96 1017.6
20260506101237 42 27 0.0 0.0 0.00 0.00 0.17 96 1017.0
20260506094235 43 13 0.0 0.0 0.00 0.00 0.17 96 1017.2
20260506092734 43 39 0.0 1.0 0.00 0.00 0.17 96 1017.2
20260506091233 43 18 0.0 1.0 0.00 0.00 0.17 96 1017.4
20260506084232 43 349 0.0 1.0 0.00 0.00 0.17 96 1018.0
20260506082730 43 47 0.0 1.0 0.00 0.00 0.17 95 1017.7
20260506072727 44 41 0.0 1.0 0.00 0.00 0.12 93 1016.7
20260506071226 44 72 0.0 1.0 0.00 0.00 0.12 93 1016.1
20260506061222 45 51 0.0 1.0 0.00 0.00 0.03 88 1016.5
20260506051218 48 22 0.0 1.0 0.00 0.00 0.00 79 1014.6
20260506044216 49 40 0.0 1.0 0.00 0.00 0.01 76 1015.2
20260506035713 49 55 0.0 1.0 0.00 0.00 0.01 81 1014.7
20260506034212 49 53 0.0 0.0 0.00 0.00 0.01 85 1014.7
20260506032711 48 41 0.0 0.0 0.00 0.00 0.01 84 1014.8
20260506024209 48 68 0.0 1.0 0.00 0.00 0.01 84 1014.2
20260506022708 48 49 0.0 1.0 0.00 0.00 0.01 85 1014.0
20260506021207 49 51 0.0 1.0 0.00 0.00 0.01 83 1014.0
20260506015706 49 65 0.0 1.0 0.00 0.00 0.01 81 1013.7
20260506014205 49 50 0.0 1.0 0.00 0.00 0.01 77 1013.5
20260506012704 50 34 0.0 1.0 0.00 0.00 0.01 75 1013.0
20260506011203 50 346 1.0 1.0 0.00 0.00 0.01 73 1013.0
20260506005702 51 75 0.0 1.0 0.00 0.00 0.01 69 1012.6
20260506004201 51 28 0.0 1.0 0.00 0.00 0.01 67 1012.2
20260506001159 52 27 0.0 0.0 0.00 0.00 0.01 74 1011.8
20260505235658 52 53 0.0 1.0 0.00 0.00 0.01 73 1011.6
20260505234157 52 62 0.0 1.0 0.00 0.00 0.01 73 1011.6
20260505232656 52 58 0.0 1.0 0.00 0.00 0.01 72 1011.3
20260505231155 52 1 0.0 1.0 0.00 0.00 0.01 72 1011.3
20260505225654 52 70 0.0 1.0 0.00 0.00 0.01 72 1010.9
20260505224153 52 44 0.0 3.0 0.00 0.00 0.01 70 1011.1
20260505221151 52 23 1.0 5.0 0.00 0.00 0.01 69 1010.9
20260505215650 53 86 1.0 3.0 0.00 0.00 0.01 68 1011.1
20260505212648 52 65 1.0 1.0 0.00 0.00 0.01 69 1011.5
20260505205646 52 5 0.0 6.0 0.00 0.00 0.01 69 1011.4
20260505204146 52 34 7.0 9.0 0.00 0.00 0.01 72 1011.3
20260505202645 51 78 0.0 3.0 0.00 0.00 0.01 73 1011.4
20260505195642 51 58 0.0 3.0 0.00 0.00 0.01 70 1011.6
20260505194142 52 22 0.0 9.0 0.00 0.00 0.01 69 1011.3